Location: Macksville High School
(37.9611°N, 99.9654°W)
Time: 19:36:04
(UTC+00:00)

Cosmos 1953 - Pass Details

Date: 17 January 2021
Orbit: 539 x 556 km, 82.5° (Epoch: 26 February)

Event Time Altitude Azimuth Distance (km) Brightness Sun altitude
Rises 12:32:24 0° 183° (S) 2,703 6.0 -15.9°
Reaches altitude 10° 12:34:33 10° 182° (S) 1,812 5.1 -15.5°
Maximum altitude 12:38:32 80° 97° (E) 558 2.4 -14.7°
Drops below altitude 10° 12:42:32 10° 10° (N) 1,816 4.9 -13.9°
Sets 12:44:42 0° 9° (N) 2,710 5.8 -13.5°
